Date,TemperatureHighF,TemperatureAvgF,TemperatureLowF,DewpointHighF,DewpointAvgF,DewpointLowF,HumidityHigh,HumidityAvg,HumidityLow,PressureMaxIn,PressureMinIn,WindSpeedMaxMPH,WindSpeedAvgMPH,GustSpeedMaxMPH,PrecipitationSumIn
2014-1-4,17.0,8.5,17.0,0.0,-50.0,-99.9,46,23,46,29.10,29.04,3,2,5,0.00
2014-1-5,49.0,34.4,23.0,44.0,22.7,8.0,97,64,39,29.02,28.37,8,2,17,0.37
2014-1-6,49.0,3.8,-9.0,42.0,-8.8,-22.0,81,55,52,29.11,28.34,9,6,23,0.13
2014-1-7,9.0,-0.1,-9.0,-5.0,-13.6,-22.0,52,52,52,29.25,29.07,7,4,16,0.00
2014-1-8,23.0,12.0,6.0,14.0,-1.2,-8.0,67,55,52,29.38,29.22,5,2,8,0.00
2014-1-9,32.0,25.5,21.0,25.0,15.1,10.0,77,65,51,29.47,29.28,3,1,5,0.00
2014-1-10,47.0,38.1,31.0,45.0,35.0,25.0,98,89,78,29.28,28.84,4,1,7,0.12
2014-1-11,55.0,47.5,36.0,51.0,40.4,-99.9,98,81,60,28.84,28.41,7,4,15,0.71
2014-1-26,34.0,24.9,14.0,17.0,9.6,2.0,59,52,48,28.63,28.48,5,3,10,0.00
2014-1-27,40.0,39.0,38.0,21.0,20.3,20.0,48,47,46,28.43,28.43,6,5,11,0.00
2014-1-28,13.0,13.0,13.0,-15.0,-15.0,-15.0,26,26,26,29.21,29.18,3,2,6,0.00
2014-1-29,23.0,23.0,23.0,-8.0,-8.0,-8.0,25,25,25,29.12,29.12,4,4,8,0.00
2014-1-30,32.0,30.3,28.0,-2.0,-2.8,-5.0,23,23,23,28.99,28.88,6,4,13,0.00
2014-1-31,41.0,36.1,31.0,23.0,17.9,8.0,70,50,26,29.11,29.06,4,2,10,0.04
2014-2-1,44.0,30.6,30.0,25.0,18.2,-99.9,74,68,57,29.09,28.86,2,0,3,0.13
2014-2-2,44.0,34.5,26.0,37.0,27.9,18.0,90,77,48,29.14,28.86,7,3,13,0.12
2014-2-3,26.0,24.9,24.0,19.0,15.8,12.0,73,67,60,29.16,29.10,4,3,8,0.04
2014-2-4,30.0,21.0,15.0,21.0,10.9,5.0,80,65,34,29.32,28.98,4,2,8,0.00
2014-2-7,8.0,4.7,2.0,-7.0,-9.7,-12.0,50,50,50,29.30,29.24,3,2,5,0.04
2014-2-10,16.0,13.0,11.0,2.0,-0.2,-2.0,57,55,50,29.15,29.13,4,2,7,0.00
2014-2-11,-1.0,-1.0,-1.0,-17.0,-17.0,-17.0,45,45,45,29.29,29.29,1,1,3,0.04
2014-2-12,36.0,36.0,36.0,1.0,1.0,1.0,22,22,22,29.02,29.02,2,2,6,0.00
2014-2-13,22.0,22.0,22.0,3.0,3.0,3.0,44,44,44,28.85,28.85,2,2,4,0.00
2014-2-14,32.0,26.3,24.0,17.0,14.7,10.0,73,62,41,28.69,28.46,4,3,10,0.00
2014-2-15,24.0,21.6,22.0,16.0,9.7,-99.9,73,68,65,29.00,28.66,5,4,10,0.00
2014-2-16,24.0,18.0,14.0,10.0,6.0,3.0,61,59,55,28.90,28.87,2,1,4,0.00
2014-2-17,36.0,28.5,1.0,31.0,20.8,-10.0,88,73,48,29.24,28.68,8,4,18,0.04
2014-2-18,37.0,33.6,32.0,31.0,28.2,23.0,87,80,68,28.90,28.70,9,5,19,0.00
2014-2-19,47.0,42.1,38.0,34.0,28.2,20.0,73,58,38,28.69,28.65,4,2,9,0.04
2014-6-4,79.0,67.0,57.0,58.0,48.3,34.0,89,57,20,28.98,28.76,5,2,9,0.37
2014-6-5,77.0,65.2,54.0,57.0,38.3,23.0,96,47,15,28.99,28.82,7,2,13,0.33
2014-6-6,86.0,66.6,47.0,51.0,33.8,22.0,84,39,13,29.06,28.96,5,1,11,0.00
2014-6-7,91.0,69.0,48.0,46.0,34.0,24.0,75,35,12,29.12,28.95,4,1,7,0.00
2014-6-8,82.0,62.8,56.0,58.0,45.8,-99.9,77,58,33,28.97,28.82,7,1,11,0.17
2014-6-9,81.0,68.7,55.0,55.0,43.7,34.0,87,47,21,29.00,28.94,5,2,8,0.08
2014-6-10,79.0,69.5,59.0,62.0,49.7,43.0,86,53,31,29.01,28.94,3,1,6,0.00
2014-6-11,87.0,73.2,64.0,61.0,53.1,43.0,86,54,22,28.95,28.83,3,1,9,0.04
2014-6-12,86.0,74.3,66.0,69.0,51.9,37.0,98,53,20,28.90,28.83,5,2,9,0.41
2014-6-13,79.0,69.0,60.0,62.0,47.2,30.0,85,52,18,29.03,28.86,6,2,11,0.04
2014-6-14,81.0,65.1,48.0,49.0,31.9,20.0,80,36,15,29.15,29.03,5,2,11,0.04
2014-6-15,93.0,70.3,48.0,49.0,31.0,-99.9,81,33,12,29.18,29.09,4,1,6,0.00
2014-6-16,95.0,73.1,60.0,62.0,47.7,37.0,71,44,16,29.20,29.12,7,1,8,0.04
2014-6-17,95.0,80.8,67.0,68.0,50.8,36.0,94,46,14,29.17,29.02,6,2,11,0.04
2014-6-18,97.0,83.3,69.0,65.0,51.0,38.0,88,38,13,29.15,29.02,5,2,16,0.21
2014-6-19,86.0,74.4,67.0,67.0,57.2,43.0,96,62,22,29.13,29.08,5,1,10,0.58
2014-6-20,90.0,74.2,61.0,63.0,53.0,38.0,85,55,18,29.13,28.96,3,1,7,0.04
2014-6-21,80.0,70.1,66.0,62.0,55.9,47.0,81,63,32,29.00,28.92,4,1,9,0.04
2014-6-22,90.0,70.1,58.0,57.0,38.7,-99.9,88,44,12,29.04,28.95,4,1,6,0.04
2014-6-23,97.0,75.8,61.0,63.0,49.5,39.0,79,47,16,29.05,28.98,5,1,12,0.08
2014-6-24,93.0,74.4,67.0,72.0,60.7,42.0,98,72,18,29.05,28.95,5,1,17,1.45
2014-6-25,87.0,75.0,68.0,72.0,59.3,43.0,98,68,22,29.01,28.93,4,1,8,1.45
2014-6-26,89.0,72.4,63.0,62.0,51.0,36.0,92,55,16,29.13,29.03,5,1,10,0.04
2014-6-27,93.0,73.4,61.0,60.0,49.2,30.0,86,52,11,29.19,29.10,3,1,4,0.00
2014-6-28,98.0,81.0,63.0,61.0,46.6,31.0,82,39,11,29.26,29.16,3,1,6,0.00
2014-6-29,93.0,74.0,72.0,66.0,52.7,-99.9,78,55,18,29.24,29.10,5,1,8,0.04
2014-6-30,92.0,78.9,69.0,66.0,54.9,42.0,88,51,19,29.11,28.93,3,1,7,0.04
2014-7-1,96.0,83.9,72.0,68.0,54.2,43.0,82,44,17,28.94,28.84,4,2,9,0.13
2014-7-2,92.0,81.0,68.0,62.0,47.9,36.0,79,38,14,29.02,28.88,5,2,10,0.04
2014-7-3,82.0,70.4,63.0,62.0,49.2,30.0,82,54,16,29.15,29.01,5,2,13,0.54
2014-7-4,82.0,68.5,55.0,56.0,36.1,21.0,87,40,14,29.32,29.15,5,2,11,0.33
2014-7-5,88.0,71.3,50.0,48.0,33.9,24.0,77,34,13,29.35,29.21,4,1,5,0.00
2014-7-6,84.0,68.6,55.0,54.0,36.2,-99.9,77,38,16,29.22,28.97,4,1,8,0.00
2014-7-9,69.0,68.0,67.0,45.0,44.5,44.0,44,43,42,29.06,29.06,0,0,0,0.00
2014-7-10,89.0,72.0,60.0,57.0,43.0,30.0,82,44,12,29.22,29.05,3,1,8,0.00
2014-7-11,93.0,75.1,60.0,55.0,40.8,28.0,73,37,11,29.27,29.19,3,1,5,0.00
2014-7-12,92.0,74.6,63.0,58.0,46.3,32.0,77,46,12,29.26,29.10,3,1,8,0.00
2014-7-13,89.0,74.1,71.0,62.0,49.1,44.0,73,40,21,29.11,28.96,4,2,10,0.08
2014-7-14,89.0,76.7,71.0,65.0,57.7,43.0,79,57,21,29.00,28.86,3,1,6,0.29
2014-7-15,83.0,75.5,67.0,64.0,45.0,27.0,75,43,14,28.89,28.83,5,2,12,0.29
2014-7-17,85.0,67.7,53.0,47.0,35.7,27.0,73,39,13,29.21,29.03,5,1,9,0.00
2014-7-18,82.0,67.9,53.0,51.0,37.2,27.0,75,41,14,29.26,29.21,4,1,7,0.00
2014-7-20,83.0,77.3,70.0,53.0,46.1,40.0,55,35,24,29.14,29.10,3,1,4,0.00
2014-7-21,97.0,78.5,63.0,62.0,49.1,35.0,86,47,12,29.20,29.12,3,1,5,0.00
2014-7-22,97.0,80.8,65.0,66.0,51.0,38.0,83,44,14,29.20,29.08,0,0,0,0.00
2014-7-23,87.0,77.5,71.0,65.0,53.2,40.0,79,49,19,29.09,28.99,6,2,12,0.00
2014-7-25,87.0,86.2,86.0,30.0,29.2,29.0,13,13,13,29.12,29.12,3,3,7,0.00
2014-7-27,89.0,71.0,68.0,66.0,54.2,43.0,80,56,20,28.92,28.71,4,1,10,0.67
2014-7-28,73.0,65.6,58.0,57.0,44.1,30.0,79,50,20,28.99,28.72,7,3,14,0.04
2014-7-29,77.0,63.0,50.0,48.0,34.2,23.0,76,41,15,29.05,28.99,4,1,8,0.00
2014-7-30,77.0,63.0,55.0,55.0,45.6,33.0,77,57,21,29.09,29.03,4,0,6,0.25
2014-7-31,87.0,66.9,59.0,60.0,40.2,28.0,89,46,13,29.16,29.05,3,1,7,0.13
2014-8-1,64.0,64.0,64.0,48.0,48.0,48.0,56,56,56,29.16,29.16,0,0,0,0.00
2014-8-12,76.0,69.4,67.0,70.0,67.7,65.0,98,96,68,28.87,28.82,0,0,0,2.74
2014-8-13,63.0,63.0,63.0,56.0,55.5,55.0,77,76,74,28.90,28.89,0,0,0,0.00